Time,TemperatureF,DewpointF,PressureIn,WindDirection,WindDirectionDegrees,WindSpeedMPH,WindSpeedGustMPH,Humidity,HourlyPrecipIn,Conditions,Clouds,dailyrainin,SolarRadiationWatts/m^2,SoftwareType,DateUTC
2013-07-25 00:02:00,61.0,61.0,30.28,East,80,26.0,34.0,99,-99.99,,,-99.99,0.000000,,2013-07-25 06:02:00,
2013-07-25 11:22:00,59.0,54.0,-100.00,ENE,65,11.0,15.0,84,-99.99,,,-99.99,449.779999,,2013-07-25 17:22:00,
2013-07-25 11:32:00,59.0,54.0,30.34,ENE,65,11.0,15.0,84,-99.99,,,-99.99,449.779999,,2013-07-25 17:32:00,
2013-07-25 11:43:00,65.0,59.0,30.34,East,79,9.0,13.0,81,-99.99,,,-99.99,565.539978,,2013-07-25 17:43:00,
2013-07-25 11:53:00,67.0,60.0,30.34,ENE,65,7.0,12.0,79,-99.99,,,-99.99,572.510010,,2013-07-25 17:53:00,
2013-07-25 12:02:00,67.0,60.0,30.34,ENE,65,7.0,12.0,79,-99.99,,,-99.99,572.510010,,2013-07-25 18:02:00,
2013-07-25 12:12:00,68.0,60.0,30.34,ENE,61,5.0,9.0,76,-99.99,,,-99.99,490.230011,,2013-07-25 18:12:00,
2013-07-25 12:22:00,69.0,60.0,30.35,West,259,4.0,9.0,72,-99.99,,,-99.99,512.539978,,2013-07-25 18:22:00,
2013-07-25 12:33:00,69.0,60.0,30.35,West,259,4.0,9.0,72,-99.99,,,-99.99,512.539978,,2013-07-25 18:33:00,
2013-07-25 12:43:00,70.0,60.0,30.34,WSW,255,6.0,13.0,70,-99.99,,,-99.99,721.039978,,2013-07-25 18:43:00,
2013-07-25 13:02:00,71.0,61.0,30.34,WSW,244,7.0,12.0,69,-99.99,,,-99.99,775.429993,,2013-07-25 19:02:00,
2013-07-25 13:12:00,71.0,62.0,30.33,WSW,253,10.0,17.0,72,-99.99,,,-99.99,544.619995,,2013-07-25 19:12:00,
2013-07-25 13:22:00,71.0,62.0,30.32,WSW,249,10.0,15.0,73,-99.99,,,-99.99,788.679993,,2013-07-25 19:22:00,
2013-07-25 13:33:00,71.0,62.0,30.32,WSW,249,10.0,15.0,73,-99.99,,,-99.99,788.679993,,2013-07-25 19:33:00,
2013-07-25 13:42:00,72.0,62.0,30.32,WSW,244,9.0,14.0,71,-99.99,,,-99.99,1104.579956,,2013-07-25 19:42:00,
2013-07-25 14:02:00,72.0,62.0,30.32,WSW,244,8.0,15.0,70,-99.99,,,-99.99,737.780029,,2013-07-25 20:02:00,
2013-07-25 14:12:00,73.0,62.0,30.31,WSW,240,7.0,12.0,68,-99.99,,,-99.99,850.049988,,2013-07-25 20:12:00,
2013-07-25 14:32:00,73.0,62.0,30.31,SE,128,7.0,12.0,68,-99.99,,,-99.99,566.929993,,2013-07-25 20:32:00,
2013-07-25 14:43:00,73.0,62.0,30.30,ESE,104,8.0,14.0,69,-99.99,,,-99.99,695.940002,,2013-07-25 20:43:00,
2013-07-25 14:53:00,72.0,62.0,30.30,ENE,76,10.0,16.0,69,-99.99,,,-99.99,357.730011,,2013-07-25 20:53:00,
2013-07-25 15:02:00,72.0,62.0,30.30,ENE,76,10.0,16.0,69,-99.99,,,-99.99,357.730011,,2013-07-25 21:02:00,
2013-07-25 15:12:00,72.0,61.0,30.30,ENE,77,9.0,16.0,69,-99.99,,,-99.99,344.480011,,2013-07-25 21:12:00,
2013-07-25 15:22:00,73.0,62.0,30.29,ESE,102,7.0,11.0,68,-99.99,,,-99.99,561.349976,,2013-07-25 21:22:00,
2013-07-25 15:32:00,73.0,62.0,30.29,ESE,102,7.0,11.0,68,-99.99,,,-99.99,561.349976,,2013-07-25 21:32:00,
2013-07-25 15:44:00,73.0,62.0,30.29,East,89,9.0,13.0,67,-99.99,,,-99.99,471.399994,,2013-07-25 21:44:00,
2013-07-25 15:52:00,73.0,62.0,30.28,East,93,7.0,11.0,66,-99.99,,,-99.99,479.769989,,2013-07-25 21:52:00,
2013-07-25 16:02:00,73.0,62.0,30.28,East,93,7.0,11.0,66,-99.99,,,-99.99,479.769989,,2013-07-25 22:02:00,
2013-07-25 16:12:00,74.0,62.0,30.28,East,92,6.0,10.0,64,-99.99,,,-99.99,654.099976,,2013-07-25 22:12:00,
2013-07-25 16:22:00,76.0,61.0,30.27,East,92,6.0,11.0,61,-99.99,,,-99.99,812.390015,,2013-07-25 22:22:00,
2013-07-25 16:32:00,76.0,61.0,30.27,East,92,6.0,11.0,61,-99.99,,,-99.99,812.390015,,2013-07-25 22:32:00,
2013-07-25 16:43:00,76.0,62.0,30.27,East,94,5.0,11.0,60,-99.99,,,-99.99,791.469971,,2013-07-25 22:43:00,
2013-07-25 17:02:00,78.0,59.0,30.26,WSW,248,14.0,20.0,50,-99.99,,,-99.99,608.770020,,2013-07-25 23:02:00,
2013-07-25 17:12:00,78.0,58.0,30.25,WSW,243,14.0,23.0,49,-99.99,,,-99.99,587.150024,,2013-07-25 23:12:00,
2013-07-25 17:22:00,78.0,59.0,30.25,WSW,247,15.0,22.0,52,-99.99,,,-99.99,149.929993,,2013-07-25 23:22:00,
2013-07-25 17:32:00,78.0,59.0,30.25,WSW,247,15.0,22.0,52,-99.99,,,-99.99,149.929993,,2013-07-25 23:32:00,
2013-07-25 17:43:00,78.0,58.0,30.24,WSW,242,12.0,22.0,50,-99.99,,,-99.99,254.529999,,2013-07-25 23:43:00,
2013-07-25 18:02:00,78.0,58.0,30.24,WSW,246,13.0,20.0,49,-99.99,,,-99.99,57.180000,,2013-07-26 00:02:00,
2013-07-25 18:12:00,78.0,58.0,30.24,WSW,238,13.0,20.0,50,-99.99,,,-99.99,224.539993,,2013-07-26 00:12:00,
2013-07-25 18:22:00,78.0,58.0,30.24,SW,236,12.0,23.0,49,-99.99,,,-99.99,214.080002,,2013-07-26 00:22:00,
2013-07-25 18:32:00,78.0,58.0,30.24,SW,236,12.0,23.0,49,-99.99,,,-99.99,214.080002,,2013-07-26 00:32:00,
2013-07-25 18:43:00,78.0,58.0,30.24,WSW,242,15.0,27.0,51,-99.99,,,-99.99,313.100006,,2013-07-26 00:43:00,
2013-07-25 18:52:00,78.0,58.0,30.24,WSW,242,15.0,27.0,51,-99.99,,,-99.99,313.100006,,2013-07-26 00:52:00,
2013-07-25 19:02:00,78.0,58.0,30.24,WSW,242,15.0,27.0,51,-99.99,,,-99.99,313.100006,,2013-07-26 01:02:00,
2013-07-25 19:12:00,77.0,58.0,30.23,WSW,239,17.0,24.0,53,-99.99,,,-99.99,93.440002,,2013-07-26 01:12:00,
2013-07-25 19:22:00,77.0,59.0,30.23,WSW,241,16.0,25.0,53,-99.99,,,-99.99,85.070000,,2013-07-26 01:22:00,
2013-07-25 19:32:00,77.0,59.0,30.23,WSW,241,16.0,25.0,53,-99.99,,,-99.99,85.070000,,2013-07-26 01:32:00,
2013-07-25 19:43:00,77.0,58.0,30.23,WSW,247,21.0,29.0,53,-99.99,,,-99.99,79.500000,,2013-07-26 01:43:00,
2013-07-25 20:02:00,76.0,59.0,30.23,WSW,246,21.0,27.0,55,-99.99,,,-99.99,89.260002,,2013-07-26 02:02:00,
2013-07-25 20:12:00,75.0,60.0,30.23,WSW,251,21.0,28.0,58,-99.99,,,-99.99,29.290001,,2013-07-26 02:12:00,
2013-07-25 20:22:00,75.0,60.0,30.24,WSW,242,18.0,25.0,60,-99.99,,,-99.99,10.460000,,2013-07-26 02:22:00,
2013-07-25 20:32:00,75.0,60.0,30.24,WSW,242,18.0,25.0,60,-99.99,,,-99.99,10.460000,,2013-07-26 02:32:00,
2013-07-25 20:43:00,74.0,61.0,30.24,WSW,246,17.0,22.0,62,-99.99,,,-99.99,2.790000,,2013-07-26 02:43:00,
2013-07-25 21:02:00,74.0,60.0,-100.00,SW,235,18.0,23.0,62,-99.99,,,-99.99,0.000000,,2013-07-26 03:02:00,
2013-07-25 21:12:00,74.0,60.0,-100.00,WSW,237,17.0,27.0,61,-99.99,,,-99.99,0.000000,,2013-07-26 03:12:00,
2013-07-25 21:32:00,74.0,60.0,-100.00,SW,234,18.0,25.0,61,-99.99,,,-99.99,0.000000,,2013-07-26 03:32:00,
2013-07-25 21:43:00,74.0,60.0,30.25,SW,234,18.0,25.0,61,-99.99,,,-99.99,0.000000,,2013-07-26 03:43:00,
2013-07-25 21:53:00,74.0,60.0,-100.00,WSW,249,23.0,28.0,62,-99.99,,,-99.99,0.000000,,2013-07-26 03:53:00,
2013-07-25 22:02:00,74.0,60.0,-100.00,WSW,249,23.0,28.0,62,-99.99,,,-99.99,0.000000,,2013-07-26 04:02:00,
2013-07-25 22:12:00,74.0,60.0,30.27,WSW,253,24.0,29.0,62,-99.99,,,-99.99,0.000000,,2013-07-26 04:12:00,
2013-07-25 22:22:00,74.0,60.0,-100.00,WSW,256,23.0,27.0,61,-99.99,,,-99.99,0.000000,,2013-07-26 04:22:00,
2013-07-25 22:32:00,74.0,60.0,30.28,WSW,256,23.0,27.0,61,-99.99,,,-99.99,0.000000,,2013-07-26 04:32:00,
2013-07-25 22:42:00,73.0,60.0,30.27,WSW,255,24.0,28.0,62,-99.99,,,-99.99,0.000000,,2013-07-26 04:42:00,
2013-07-25 22:53:00,73.0,60.0,30.27,WSW,255,24.0,28.0,62,-99.99,,,-99.99,0.000000,,2013-07-26 04:53:00,
2013-07-25 23:02:00,73.0,60.0,30.27,WSW,258,25.0,30.0,63,-99.99,,,-99.99,0.000000,,2013-07-26 05:02:00,
2013-07-25 23:12:00,73.0,60.0,30.26,West,260,24.0,28.0,64,-99.99,,,-99.99,0.000000,,2013-07-26 05:12:00,
2013-07-25 23:22:00,73.0,60.0,30.27,West,261,21.0,27.0,65,-99.99,,,-99.99,0.000000,,2013-07-26 05:22:00,
2013-07-25 23:32:00,73.0,60.0,30.27,West,261,21.0,27.0,65,-99.99,,,-99.99,0.000000,,2013-07-26 05:32:00,
2013-07-25 23:43:00,73.0,61.0,30.27,West,259,19.0,22.0,65,-99.99,,,-99.99,0.000000,,2013-07-26 05:43:00,